x

8419317 - Wells, Me (welm1) Weather Station

9:30 - Thu 26th Mar 2015 All times are EDT. -4 hours from GMT.

  • Wind
    6mph, 7mph gusts
  • Luft Temp 44°f
  • Sea Pressure 1004.2mb
  • 8419317 - Wells, Me
  • 8419317 - Wells, Me

More Historic Weather Station data

Upgrade to MSW Pro to gain access to the past 30 days of data for over 8000 Wavebouys and Weather Stations around the globe.

Join Pro

Comparision Forecast

View Surf forecast
   
Do 03/26 9:30 6 7 mph 1004.2mb 44f
9:24 5 6 mph 1004.4mb 44f
9:18 5 6 mph 1004.2mb 44f
9:12 3 7 mph 1004mb 44f
9:06 5 7 mph 1003.7mb 44f
9:00 3 7 mph 1003.9mb 44f
8:54 7
mph
1003.6mb 44f
8:48 3 7 mph 1003.9mb 43f
8:42 8
mph
1003.7mb 44f
8:36 5 6 mph 1004.2mb 43f
8:30 6
mph
1003.5mb 43f
8:24 3 6 mph 1003.8mb 43f
8:18 5 6 mph 1003.6mb -
8:12 3 5 mph 1003.5mb 44f
8:06 6
mph
1003.4mb 42f
8:00 3 6 mph 1003.5mb 42f
7:54 5 6 mph 1003.5mb 42f
7:48 3 5 mph 1003.3mb 41f
7:42 3
mph
1003.3mb 41f
7:36 1 3 mph 1003.4mb 41f
7:30 2 3 mph 1003.3mb 42f
7:24  -  2 mph 1003.6mb 41f
7:18 2
mph
1003.5mb 42f
7:12 1 2 mph 1003.8mb 42f
7:06 1 2 mph 1003.7mb 42f
7:00 2 3 mph 1003.6mb 42f
6:54 2 3 mph 1003.8mb 43f
6:48  -  1 mph 1003.8mb 42f
6:42 1 2 mph 1003.9mb 42f
6:36  -  1 mph 1003.9mb 42f
6:30  -  1 mph 1003.9mb 42f
6:24  -  1 mph 1003.7mb 42f
6:18  -  1 mph 1003.9mb 42f
6:12  -  1 mph 1003.9mb 42f
6:06  -  2 mph 1003.9mb 42f
6:00 2
mph
1003.3mb 42f
5:54 2 3 mph 1003.3mb 42f
5:48 2
mph
1003.3mb 41f
5:42 2
mph
1003.6mb 42f
5:36  -  2 mph 1003.8mb 43f
5:30 2 6 mph 1003.8mb 43f
5:24 3 5 mph 1004.2mb 44f
5:18 2 3 mph 1003.3mb 44f
5:12 1 3 mph 1003.5mb 44f
5:06 3
mph
1003.6mb 44f
5:00 2
mph
1003.8mb 44f
4:54  -  1 mph 1003.9mb 44f
4:48 1
mph
1004.5mb 44f
4:42  -  2 mph 1004.7mb 44f
4:36 2 3 mph 1005mb 44f
4:30 2 3 mph 1005.1mb 43f
4:24 3 6 mph 1005.3mb 43f
4:18 6 7 mph 1005.3mb 43f
4:12 6 7 mph 1005.2mb 42f
4:06 6 7 mph 1006mb 42f
4:00 3 6 mph 1006.2mb 42f
3:54 5 6 mph 1006.3mb 42f
3:48  -  2 mph 1005.5mb 42f
3:42 1 5 mph 1005.5mb 43f
3:36 3 5 mph 1005.4mb 43f
3:30 2
mph
1005.8mb 42f
3:24 1 2 mph 1006.2mb 42f
3:18 1 5 mph 1005.7mb 42f
3:12 5 7 mph 1006.3mb 41f
3:06 6 13 mph 1005.7mb 41f
3:00 10 15 mph 1005.6mb 40f
2:54 13 16 mph 1005.3mb 40f
2:48 15 20 mph 1005.2mb 40f
2:42 14 16 mph 1005.8mb 40f
2:36 10 13 mph 1005.8mb 41f
2:30 9 10 mph 1005.7mb 42f
2:24 8 9 mph 1005.8mb 43f
2:18 7
mph
1006mb 42f
2:12 6 7 mph 1006mb 43f
2:06 6 8 mph 1006.4mb 43f
2:00 8 11 mph 1006.8mb 43f
1:54 9 13 mph 1007.1mb 44f
1:48 9 11 mph 1006.9mb 44f
1:42 11 14 mph 1007.2mb 44f
1:36 15 18 mph 1007mb 42f
1:30 15 17 mph 1007.3mb 42f
1:24 15 17 mph 1007.5mb 44f
1:18 11 16 mph 1007.8mb 44f
1:12 14 15 mph 1007.8mb 44f
1:06 14 22 mph 1007.9mb 44f
1:00 18 22 mph 1008.2mb 44f
12:54 17 22 mph 1008.1mb 43f
12:48 21 25 mph 1008.3mb 43f
12:42 17 22 mph 1008.4mb 43f
12:36 18 22 mph 1008.5mb 43f
12:30 16 18 mph 1008.3mb 43f
12:24 16 23 mph 1008.7mb 44f
12:18 21 24 mph 1009.3mb 43f
12:12 20 25 mph 1009.3mb 43f
12:06 20 22 mph 1009.3mb 43f
12:00 16 20 mph 1009.5mb 42f
11:54 17 22 mph 1009.7mb 42f
11:48 18 21 mph 1009.8mb 43f
11:42 17 20 mph 1009.8mb 42f
11:36 16 20 mph 1009.8mb 42f
11:30 15 20 mph 1009.9mb 43f
11:24 17 20 mph 1010.1mb 43f
11:18 17 20 mph 1010.4mb 42f
11:12 17 20 mph 1010.6mb 42f
11:06 16 18 mph 1010.6mb 42f
11:00 14 15 mph 1010.6mb 42f
10:54 15 17 mph 1010.8mb 42f
10:48 13 14 mph 1010.9mb 43f
10:42 13 14 mph 1011mb 43f
10:36 10 11 mph 1011.2mb 44f
10:30 10 13 mph 1011.4mb 44f
10:24 10 11 mph 1011.5mb 44f
10:18 8 11 mph 1011.5mb 44f
10:12 8 11 mph 1011.6mb 46f
10:06 10 13 mph 1011.7mb 45f
10:00 10 13 mph 1011.8mb 45f
9:54 10 11 mph 1011.9mb 45f
9:48 7 9 mph 1012mb 45f
9:42 7 9 mph 1012mb 44f
9:36 6 11 mph 1012mb 44f
9:30 9 13 mph 1012.2mb 43f
9:24 7 11 mph 1012.2mb 43f
9:18 7 11 mph 1012.2mb 43f
9:12 9 11 mph 1012.2mb 42f
9:06 5 11 mph 1012.3mb 42f
9:00 6 11 mph 1012.3mb 42f
8:54 7 11 mph 1012.3mb 42f
8:48 7 11 mph 1012.3mb 42f
8:42 7 8 mph 1012.4mb 41f
8:36 5 8 mph 1012.4mb 41f
8:30 3 6 mph 1012.5mb 41f
8:24 2 7 mph 1012.6mb 41f
8:18 3 7 mph 1012.7mb 41f
8:12 5 7 mph 1012.7mb 40f
8:06 2 5 mph 1012.7mb 40f
8:00 3 6 mph 1012.6mb 39f
7:54 7 11 mph 1012.6mb 39f
7:48 7
mph
1012.6mb 39f
7:42 6 8 mph 1012.6mb 40f
7:36 6 8 mph 1012.8mb 40f
7:30 5 7 mph 1012.9mb 39f
7:24 3 5 mph 1012.9mb 38f
7:18 3 6 mph 1012.8mb 38f
7:12 3 6 mph 1012.8mb 38f
7:06 6 7 mph 1013mb 37f
7:00 6 7 mph 1013mb 37f
6:54 5 7 mph 1013mb 37f
6:48 6 8 mph 1013.1mb 37f
6:42 6 7 mph 1013.1mb 37f
6:36 7 8 mph 1013.1mb 37f
6:30 6
mph
1012.9mb 37f
6:24 3 5 mph 1012.9mb 37f
6:18 2
mph
1013mb 37f
6:12  -  1 mph 1013.2mb 37f
6:06  -  3 mph 1013.2mb 37f
6:00  -  mph 1013.3mb 37f
5:54  -  mph 1013.2mb 36f
5:48 5 6 mph 1013.3mb -
5:42 6
mph
1013.3mb -
5:36 5 6 mph 1013.4mb -
5:30 5
mph
1013.6mb 37f
5:24 3 5 mph 1013.7mb 37f
5:18 3 5 mph 1013.9mb 37f
5:12 5 6 mph 1014mb 37f
5:06 6 7 mph 1014mb 37f
5:00 6 7 mph 1014.2mb 37f
4:54 6 7 mph 1014.3mb 37f
4:48 6 8 mph 1014.4mb 37f
4:42 6 8 mph 1014.4mb 37f
4:36 7 9 mph 1014.3mb 37f
4:30 8 9 mph 1014.3mb 37f
4:24 8 9 mph 1014.3mb 37f
4:18 7 8 mph 1014.5mb 36f
4:12 7 8 mph 1014.6mb 36f
4:06 7 8 mph 1014.7mb 36f
4:00 7 8 mph 1015mb 36f
3:54 7
mph
1015.1mb 36f
3:48 6 7 mph 1015.3mb 36f
3:42 6 7 mph 1015.4mb 36f
3:36 7 8 mph 1015.7mb 36f
3:30 7 8 mph 1015.8mb 36f
3:24 7 9 mph 1016mb 36f
3:18 8 9 mph 1016mb 36f
3:12 8 10 mph 1016.1mb 36f
3:06 8 10 mph 1016.2mb 36f
3:00 9 11 mph 1016.3mb 36f
2:54 10 14 mph 1016.3mb 36f
2:30 11 14 mph 1016.7mb -
2:24 10 13 mph 1016.8mb 36f
2:00 8 11 mph 1017.4mb 36f
1:54 10 11 mph 1017.5mb 36f
1:48 10 11 mph 1017.6mb 36f
1:42 10 13 mph 1017.8mb 35f
1:36 9 10 mph 1017.9mb 35f
1:30 9 11 mph 1018mb 35f
1:24 9 11 mph 1018.3mb 35f
1:18 8 9 mph 1018.4mb 35f
1:12 8 9 mph 1018.6mb 35f
1:06 8 11 mph 1018.8mb 35f
1:00 10 11 mph 1018.9mb 35f
12:54 9 13 mph 1018.9mb 35f
12:48 10 13 mph 1019mb 35f
12:42 11 15 mph 1019.1mb 35f
12:36 14 15 mph 1019.2mb 35f
12:30 13 15 mph 1019.3mb 35f
12:24 10 14 mph 1019.5mb 35f
12:18 11 15 mph 1019.6mb -
12:12 11 14 mph 1019.7mb 35f
12:06 11 14 mph 1019.9mb 35f
12:00 13 16 mph 1020mb 35f
Mi 03/25 11:54 13 16 mph 1020mb 35f
11:48 13 15 mph 1020mb 35f
11:42 14 15 mph 1020.1mb 35f
11:36 14 16 mph 1020.1mb 35f
11:30 13 16 mph 1020.3mb 35f
11:24 14 16 mph 1020.3mb 35f
11:18 15 17 mph 1020.4mb 35f
11:12 15 16 mph 1020.4mb 35f
11:06 11 16 mph 1020.5mb 35f
11:00 14 16 mph 1020.6mb 35f
10:54 10 14 mph 1020.8mb 35f
10:48 10 13 mph 1020.7mb 35f
10:42 10 13 mph 1020.7mb 35f
10:36 9 11 mph 1020.9mb 35f
10:30 10 13 mph 1021mb 35f
10:24 9 10 mph 1021.2mb 35f
10:18 10 13 mph 1021.3mb 35f
10:12 11 14 mph 1021.4mb 36f
10:06 11 15 mph 1021.5mb 36f
10:00 13 15 mph 1021.5mb 36f
9:54 13 16 mph 1021.7mb 36f
9:48 14 16 mph 1021.8mb 36f
9:42 14 16 mph 1022mb 36f
9:36 13 16 mph 1022.1mb 37f
9:30 14 17 mph 1022.3mb 37f
9:24 15 20 mph 1022.4mb 37f
9:18 17 22 mph 1022.5mb 37f
9:12 20 22 mph 1022.4mb 37f
9:06 17 21 mph 1022.2mb 37f
9:00 18 21 mph 1022.4mb 38f
8:54 15 23 mph 1022.3mb 38f
8:48 17 22 mph 1022.4mb 39f
8:42 15 18 mph 1022.3mb 40f
8:36 16 21 mph 1022.4mb 40f
8:30 16 20 mph 1022.5mb 41f
8:24 13 15 mph 1022.4mb 40f
8:18 13 15 mph 1022.3mb 40f
8:12 14 16 mph 1022.2mb 40f
8:06 14 15 mph 1022.1mb 40f
8:00 11 17 mph 1021.9mb 40f
7:54 13 15 mph 1021.9mb 39f
7:48 14 15 mph 1022mb 39f
7:42 14 16 mph 1022.1mb 39f
7:36 15 18 mph 1022.2mb 39f
7:30 16 18 mph 1022.3mb 39f
7:24 14 17 mph 1022.3mb 38f
7:18 13 16 mph 1022.4mb 38f
7:12 13 15 mph 1022.6mb 38f
7:06 14 17 mph 1022.5mb 39f
7:00 13 15 mph 1022.7mb 38f
6:54 11 14 mph 1022.9mb 38f
6:48 13 15 mph 1023mb 38f
6:42 11 14 mph 1023.1mb 38f
6:36 11 15 mph 1023.2mb 38f
6:30 10 13 mph 1023.2mb 38f
6:24 9 11 mph 1023.3mb 38f
6:18 9 10 mph 1023.3mb 38f
6:12 9 10 mph 1023.6mb 37f
6:06 9 10 mph 1023.6mb 37f
6:00 9 11 mph 1023.7mb 37f
5:54 9 10 mph 1023.6mb 37f
5:48 10 11 mph 1023.8mb 38f
5:42 10 13 mph 1023.8mb 37f
5:36 10 13 mph 1023.8mb 38f
5:30 10 11 mph 1024mb 37f
5:24 10 15 mph 1024mb 38f
5:18 13 14 mph 1024.2mb 38f
5:12 11 14 mph 1024.2mb 38f
5:06 13 15 mph 1024.3mb 38f
5:00 11 14 mph 1024.4mb 38f
4:54 11 14 mph 1024.5mb 38f
4:48 10 14 mph 1024.6mb 38f
4:42 13 15 mph 1024.7mb 38f
4:36 11 14 mph 1024.8mb 38f
4:30 11 14 mph 1024.8mb 38f
4:24 10 14 mph 1024.7mb 38f
4:18 10 13 mph 1024.7mb 38f
4:12 10 13 mph 1024.7mb 38f
4:06 11 13 mph 1025mb 38f
4:00 11 15 mph 1025mb 38f
3:54 10 11 mph 1025mb 39f
3:48 10 14 mph 1025mb 38f
3:42 11 14 mph 1025.2mb 38f
3:36 11 17 mph 1025.3mb 38f
3:30 11 14 mph 1025.5mb 38f
3:24 13 15 mph 1025.5mb 38f
3:18 11 14 mph 1025.5mb 38f
3:12 14 17 mph 1025.8mb 38f
3:06 11 14 mph 1025.9mb 38f
3:00 13 14 mph 1026mb 38f
2:54 11 14 mph 1026mb 38f
2:48 10 13 mph 1026.1mb 38f
2:42 10 11 mph 1026.1mb 38f
2:36 9 13 mph 1026.3mb 38f
2:30 9 11 mph 1026.5mb 38f
2:24 9 13 mph 1026.5mb 38f
2:18 9 13 mph 1026.5mb 38f
2:12 9 13 mph 1026.6mb 38f
2:06 9 11 mph 1026.7mb 38f
2:00 10 13 mph 1026.9mb 38f
1:54 9 11 mph 1027mb 38f
1:48 8 11 mph - -
1:42 9 10 mph 1027.2mb 38f
1:36 8 10 mph 1027.3mb 38f
1:30 8 10 mph 1027.4mb 37f
1:24 8 10 mph 1027.6mb 37f
1:18 8 10 mph - -
1:12 8 10 mph 1027.7mb 37f
1:06 8 9 mph 1027.8mb 37f
1:00 7 9 mph 1028mb 37f
12:54 7 8 mph 1028.1mb 37f
12:48 7 9 mph 1028.2mb 37f
12:42 8 9 mph 1028.2mb 37f
12:36 7 9 mph 1028.3mb 37f
12:30 7 8 mph 1028.3mb 37f
12:24 7 9 mph 1028.4mb 37f
12:18 6 7 mph 1028.5mb 37f
12:12 6
mph
1028.5mb 37f
12:06 6 7 mph 1028.5mb 37f
12:00 5 7 mph 1028.5mb 37f
11:54 5 7 mph 1028.5mb 37f
11:48 5 7 mph 1028.7mb 37f
11:42 6 8 mph 1028.8mb 37f
11:36 6 7 mph 1028.9mb 37f
11:30 5 7 mph 1028.9mb 37f
11:24 5 6 mph 1029mb 37f
11:18 5 7 mph 1029mb 37f
11:12 6
mph
1029mb 37f
11:06 5 6 mph 1029.1mb 37f
11:00 5 6 mph 1029.2mb 37f
10:54 5 6 mph 1029.1mb 37f
10:48 5 6 mph 1029.2mb 37f
10:42 5 6 mph 1029.1mb 36f
10:36 5 6 mph 1029mb 35f
10:30 3 6 mph 1028.9mb 35f
10:24 5
mph
1028.8mb 34f
10:18 3 5 mph 1028.9mb 34f
10:12 5
mph
1028.8mb 34f
10:06 3
mph
1028.8mb 34f
10:00 2 3 mph 1028.8mb 35f
9:54 2 3 mph 1028.7mb 34f
9:48 3
mph
1028.5mb 33f
9:42 3 5 mph 1028.4mb 33f
9:36 3 5 mph 1028.4mb 32f
9:30 3 5 mph 1028.4mb 32f
9:24 3 5 mph 1028.4mb 32f
9:18 3 5 mph 1028.4mb 32f
9:12 3 6 mph 1028.4mb 32f
9:06 2
mph
1028.4mb 33f
9:00 2
mph
1028.4mb 33f
8:54  -  1 mph 1028.5mb 35f
8:48  -  1 mph 1028.6mb 37f
8:42  -  1 mph 1028.8mb 36f
8:36  -  1 mph 1028.9mb 36f
8:30  -  mph 1028.8mb 34f
8:24  -  2 mph 1028.7mb 32f
8:18  -  1 mph 1028.7mb 32f
8:12  -  1 mph 1028.7mb 33f
8:06  -  2 mph 1028.8mb 31f
8:00  -  2 mph 1028.8mb 30f
7:54 1 3 mph 1028.9mb 29f
7:48 1 2 mph 1028.8mb 29f
7:42 1 2 mph 1028.8mb 29f
7:36 1 3 mph 1028.7mb 28f
7:30 2 3 mph 1028.8mb 27f
7:24 1 2 mph 1028.7mb 26f
7:18  -  1 mph 1028.6mb 24f
7:12  -  2 mph 1028.5mb 23f
7:06 2
mph
1028.5mb 22f
7:00 2
mph
1028.5mb 23f
6:54  -  2 mph 1028.4mb 22f
6:48 2
mph
1028.4mb 22f
6:42 1
mph
1028.3mb 22f
6:36 1 2 mph 1028.1mb 22f
6:30 2
mph
1028.1mb 22f
6:24 1 2 mph 1028mb 23f
6:18  -  1 mph 1028mb 23f
6:12 1 2 mph 1027.9mb 22f
6:06 1
mph
1027.9mb 23f
6:00  -  2 mph 1027.9mb 23f
5:54 1 3 mph 1027.8mb 23f
5:48 2 3 mph 1027.7mb -
5:42 1 2 mph 1027.6mb -
5:36  -  2 mph 1027.5mb -
5:30 1 2 mph 1027.4mb 25f
5:24 2 3 mph 1027.4mb 25f
5:18 2 3 mph 1027.3mb 25f
5:12 1 2 mph 1027.2mb 25f
5:06 2 3 mph 1027.2mb 24f
5:00 2 3 mph 1027.2mb 24f
4:54 2 5 mph 1027.1mb 25f
4:48 3
mph
1027.1mb 25f
4:42 2 5 mph 1027mb 25f
4:36 5
mph
1027.1mb 25f
4:30 1 2 mph 1027.1mb 25f
4:24  -  2 mph 1027mb 24f
4:18 2
mph
1027mb 25f
4:12 1 3 mph 1027.1mb 24f
4:06 2
mph
1027mb 23f
4:00 1
mph
1026.9mb 24f
3:54  -  2 mph 1026.8mb 24f
3:48 2
mph
1026.8mb 24f
3:42 2
mph
1026.8mb 24f
3:36  -  2 mph 1026.9mb 24f
3:30 2
mph
1026.9mb 25f
3:24  -  2 mph 1026.9mb 25f
3:18  -  1 mph 1026.8mb 25f
3:12 1 2 mph 1026.8mb 25f
3:06 2
mph
1026.8mb 25f
3:00 2
mph
1026.8mb 24f
2:54 1 2 mph 1026.7mb 24f
2:48 2 3 mph 1026.7mb 25f
2:42 3 5 mph 1026.7mb 25f
2:36 2
mph
1026.8mb 25f
2:30 2
mph
1026.8mb 25f
2:24 1
mph
1026.8mb 25f
2:18 1
mph
1026.8mb 25f
2:12 1 2 mph 1026.8mb 26f
2:06 2
mph
1026.8mb 26f
2:00 1 2 mph 1026.8mb 26f
1:54 2 5 mph 1026.7mb 26f
1:48 5
mph
1026.7mb 26f
1:42 3 5 mph 1026.7mb 27f
1:36 2 3 mph 1026.6mb 27f
1:30  -  2 mph 1026.6mb 27f
1:24 2 3 mph 1026.6mb 27f
1:18 3
mph
1026.6mb 28f
1:12 3 5 mph 1026.5mb 28f
1:06 5
mph
1026.5mb 29f
1:00 3 5 mph 1026.4mb 29f
12:54 3 5 mph 1026.4mb 29f
12:48 5 6 mph 1026.4mb 28f
12:42 6
mph
1026.3mb 29f
12:36 2 5 mph 1026.3mb 29f
12:30 3 5 mph 1026.3mb 28f
12:24 2 5 mph 1026.2mb 28f
12:18 5
mph
1026.2mb 28f
12:12 5
mph
1026.1mb 28f
12:06 2 3 mph 1026.1mb 28f
12:00 2
mph
1026mb 28f
Di 03/24 11:54 1 2 mph 1026.1mb 28f
11:48 1 2 mph 1026.1mb 27f
11:42  -  1 mph 1026.1mb 26f
11:36 1 2 mph 1026mb 25f
11:30 2
mph
1025.9mb 25f
11:24 1 3 mph 1025.9mb 26f
11:18 2 3 mph 1025.9mb 26f
11:12 1 2 mph 1025.8mb 26f
11:06  -  1 mph 1025.8mb 28f
11:00 1
mph
1025.8mb 28f
10:54 1 2 mph 1025.8mb 28f
10:48 1 3 mph 1025.7mb 28f
10:42 3
mph
1025.7mb 28f
10:36 1
mph
1025.8mb 28f
10:30 1 2 mph 1025.7mb 26f
10:24 1 2 mph 1025.7mb 26f
10:18 2
mph
1025.6mb 26f
10:12  -  1 mph 1025.6mb 27f
10:06  -  1 mph 1025.7mb 28f
10:00  -  1 mph 1025.7mb 28f
9:54  -  1 mph 1025.7mb 27f
9:48  -  1 mph 1025.7mb 28f
9:42 1 2 mph 1025.7mb 28f
9:36 2
mph
1025.6mb 29f
9:30 1 2 mph 1025.7mb 29f
9:24  -  2 mph 1025.7mb 30f
9:18 1 2 mph 1025.7mb 29f
9:12 1 2 mph 1025.7mb 29f
9:06 1 2 mph 1025.7mb 29f
9:00 2
mph
1025.7mb 29f
8:54  -  mph 1025.7mb 29f
8:48  -  2 mph 1025.7mb 30f
8:42 2
mph
1025.6mb 30f
8:36 2
mph
1025.5mb 31f
8:30 2 3 mph 1025.5mb 31f
8:24 3
mph
1025.4mb 31f
8:18 3 5 mph 1025.3mb 31f
8:12 3
mph
1025.2mb 31f
8:06 2
mph
1025.2mb 31f
8:00 2
mph
1025.2mb 31f
7:54 3 5 mph 1025.1mb 31f
7:48 3 5 mph 1025mb 31f
7:42 5 6 mph 1025mb 32f
7:36 6 7 mph 1024.9mb 32f
7:30 6 8 mph 1024.8mb 33f
7:24 7 8 mph 1024.7mb 33f
7:18 7 8 mph 1024.6mb 33f
7:12 8 10 mph 1024.6mb 34f
7:06 9 10 mph 1024.7mb 34f
7:00 9 11 mph 1024.6mb 34f
6:54 11 13 mph 1024.6mb 34f
6:48 11 13 mph 1024.6mb 34f
6:42 11 14 mph 1024.5mb 34f
6:36 11 14 mph 1024.5mb 35f
6:30 11 14 mph 1024.5mb 35f
6:24 10 13 mph 1024.4mb 35f
6:18 13 14 mph 1024.4mb 35f
6:12 14 15 mph 1024.4mb 34f
6:06 13 14 mph 1024.3mb 34f
6:00 11 16 mph 1024.3mb 34f
5:54 14 15 mph 1024.3mb 34f
5:48 13 15 mph 1024.2mb 34f
5:42 14 15 mph 1024.2mb 34f
5:36 13 15 mph 1024.2mb 34f
5:30 14 16 mph 1024.2mb 34f
5:24 14 15 mph 1024.2mb 34f
5:18 13 15 mph 1024.2mb 33f
5:12 13 15 mph 1024.2mb 33f
5:06 14 15 mph 1024.1mb 33f
5:00 13 15 mph 1024.1mb 33f
4:54 13 15 mph 1024.1mb 33f
4:48 11 15 mph 1024.1mb 33f
4:42 13 14 mph 1024.1mb 33f
4:36 11 15 mph 1024mb 33f
4:30 14 17 mph 1024mb 32f
4:24 14 16 mph 1024mb 32f
4:18 14 16 mph 1024mb 32f
4:12 14 15 mph 1024.1mb 32f
4:06 11 15 mph 1024.1mb 32f
4:00 14 16 mph 1024.2mb 32f
3:54 13 15 mph 1024.2mb 32f
3:48 11 15 mph 1024.2mb 32f
3:42 14 15 mph 1024.2mb 32f
3:36 13 14 mph 1024.2mb 32f
3:30 13 15 mph 1024.2mb 32f
3:24 10 13 mph 1024.2mb 32f
3:18 10 11 mph 1024.2mb 33f
3:12 11 14 mph 1024.2mb 32f
3:06 11 13 mph 1024.3mb 32f
3:00 10 14 mph 1024.3mb 32f
2:54 10 13 mph 1024.4mb 32f
2:48 9 14 mph 1024.5mb 32f
2:42 10 14 mph 1024.6mb 31f
2:36 10 14 mph 1024.6mb 32f
2:30 10 13 mph 1024.8mb 31f
2:24 10 13 mph 1024.8mb 31f
2:18 9 11 mph 1024.9mb 31f
2:12 10 13 mph 1024.9mb 31f
2:06 10 11 mph 1025mb 31f
2:00 10 13 mph 1025mb 31f
1:54 9 11 mph 1025.1mb 31f
1:48 9 11 mph 1025.1mb 31f
1:42 9 11 mph 1025.2mb 31f
1:36 9 11 mph 1025.3mb 31f
1:30 8 13 mph 1025.3mb 31f
1:24 10 13 mph 1025.5mb 31f
1:18 10 11 mph 1025.5mb 31f
1:12 9 11 mph 1025.5mb 32f
1:06 8 10 mph 1025.5mb 32f
1:00 8 10 mph 1025.5mb 32f
12:54 8 9 mph 1025.5mb 32f
12:48 8 10 mph 1025.5mb 31f
12:42 9 10 mph 1025.6mb 31f
12:36 9
mph
1025.6mb 31f
12:30 7 9 mph 1025.7mb 31f
12:24 8 10 mph 1025.7mb 31f
12:18 9 10 mph 1025.7mb 31f
12:12 8 10 mph 1025.8mb 31f
12:06 8 10 mph 1025.7mb 31f
12:00 8 10 mph 1025.8mb 31f
11:54 8 9 mph 1025.9mb 31f
11:48 7 8 mph 1025.8mb 32f
11:42 7 9 mph 1025.9mb 31f
11:36 7 8 mph 1026mb 31f
11:30 7 8 mph 1026mb 31f
11:24 7 8 mph 1026.1mb 31f
11:18 7
mph
1026.2mb 31f
11:12 6 7 mph 1026.2mb 31f
11:06 6 7 mph 1026.3mb 31f
11:00 5 6 mph 1026.4mb 30f
10:54 2 6 mph 1026.4mb 30f
10:48 3 5 mph 1026.4mb 29f
10:42 3 6 mph 1026.4mb 29f
10:36 3 6 mph 1026.4mb 29f
10:30 5 7 mph 1026.5mb 29f
10:24 3 7 mph 1026.5mb 28f
10:18 5 6 mph 1026.6mb 28f
10:12 5 6 mph 1026.6mb 28f
10:06 6 9 mph 1026.7mb 27f
10:00 6 9 mph 1026.6mb 27f
9:54 6 9 mph 1026.6mb 27f
9:48 5 6 mph 1026.6mb 27f
9:42 3 6 mph 1026.6mb 26f
9:36 2 3 mph 1026.6mb 26f
9:30 3 6 mph 1026.5mb 26f
9:24 3 5 mph 1026.5mb 26f
9:18  -  2 mph 1026.5mb 27f
9:12 2 3 mph 1026.5mb 25f
9:06 1 2 mph 1026.4mb 25f
9:00  -  3 mph 1026.4mb 25f
8:54 3
mph
1026.3mb 23f
8:48 3 5 mph 1026.3mb 23f
8:42 2 3 mph 1026.2mb 23f
8:36 3
mph
1026.2mb 22f
8:30 1 3 mph 1026.2mb 22f
8:24 3 6 mph 1026.1mb 21f
8:18 5 6 mph 1026mb 20f
8:12 5 6 mph 1026mb 20f
8:06 5 6 mph 1025.8mb 20f
8:00 5 7 mph 1025.8mb 19f
7:54 5 6 mph 1025.8mb 19f
7:48 6 7 mph 1025.8mb 18f
7:42 6 7 mph 1025.7mb 17f
7:36 6 7 mph 1025.7mb 17f
7:30 6 8 mph 1025.6mb 17f
7:24 6 7 mph 1025.5mb 17f
7:18 5 6 mph 1025.5mb 17f
7:12 2 5 mph 1025.5mb 17f
7:00 5 6 mph 1025.4mb 15f
6:54 5 6 mph 1025.3mb 15f
6:48 6 7 mph 1025.3mb 15f
6:42 6
mph
1025.2mb 15f
6:36 5 6 mph 1025.2mb 15f
6:30 2 5 mph 1025.2mb 15f
6:24 3 5 mph 1025.1mb 15f
6:18 5 7 mph 1025mb 14f
6:12 5 7 mph 1025mb 15f
6:06 5 7 mph 1024.9mb 15f
6:00 6 7 mph 1024.9mb 15f
5:54 6 7 mph 1024.9mb 15f
5:48 5 7 mph 1024.9mb -
5:42 3 6 mph 1024.9mb -
5:36 3 5 mph 1024.8mb -
5:30 3 6 mph 1024.8mb 15f
5:24 5 6 mph 1024.8mb 15f
5:18 5 6 mph 1024.7mb 15f
5:12 3 5 mph 1024.7mb 15f
5:06 2 3 mph 1024.6mb 15f
5:00 3 5 mph 1024.5mb 15f
4:54 2 5 mph 1024.4mb 15f
4:48 2 5 mph 1024.3mb 15f
4:42 3 5 mph 1024.2mb 15f
4:36 3 5 mph 1024.2mb 15f
4:30 2 3 mph 1024.1mb 15f
4:24 3 5 mph 1024mb 15f
4:18 3 5 mph 1023.9mb 15f
4:12 2 3 mph 1023.9mb 16f
4:06 2 5 mph 1023.8mb 16f
4:00 3 6 mph 1023.9mb 15f
3:54 5 6 mph 1023.7mb 15f
3:48 3 6 mph 1023.8mb 15f
3:42 3 5 mph 1023.8mb 15f
3:36 3 5 mph 1023.8mb 15f
3:30 3 6 mph 1023.8mb 15f
3:24 3 5 mph 1023.8mb 16f
3:18 3 5 mph 1023.7mb 16f
3:12 3 5 mph 1023.7mb 16f
3:06 2 3 mph 1023.8mb 16f
3:00 2 3 mph 1023.8mb 16f
2:54 2 3 mph 1023.8mb 16f
2:48 1 2 mph 1023.9mb 17f
2:42 2 3 mph 1023.9mb 17f
2:36 2 3 mph 1023.9mb 17f
2:30 2 3 mph 1023.9mb 17f
2:24  -  5 mph 1023.8mb 17f
2:18 3 5 mph 1023.8mb 17f
2:12 5
mph
1023.7mb 18f
2:06 2 5 mph 1023.8mb 18f
2:00 3 6 mph 1023.7mb 18f
1:54 3 5 mph 1023.6mb 18f
1:48 5
mph
1023.7mb 18f
1:42 3 5 mph 1023.7mb 18f
1:36 3 5 mph 1023.6mb 18f
1:30 1 2 mph 1023.6mb 18f
1:24 1 3 mph 1023.6mb 18f
1:18 3 6 mph 1023.4mb 19f
1:12 3 5 mph 1023.4mb 19f
1:06 3 5 mph 1023.4mb 19f
1:00 2
mph
1023.4mb 19f
12:54 2 5 mph 1023.4mb 19f
12:48 5
mph
1023.2mb 19f
12:42 2 5 mph 1023.3mb 19f
12:36 3
mph
1023.1mb 20f
12:30 3 5 mph 1023.1mb 20f
12:24 3 5 mph 1023.2mb 19f
12:18 2 3 mph 1023.1mb 20f
12:12 1 3 mph 1023mb 20f
12:06 3 6 mph 1022.9mb 20f
12:00 5 6 mph 1022.8mb 20f
Mo 03/23 11:54 3 5 mph 1022.8mb 20f
11:48 3 5 mph 1022.9mb 20f
11:42 3 7 mph 1022.8mb 20f
11:36 6 7 mph 1022.6mb 20f
11:30 2 3 mph 1022.7mb 22f
11:24 2 5 mph 1022.8mb 21f
11:18 3 5 mph 1022.8mb 21f
11:12 1 2 mph 1022.8mb 21f
11:06 2 3 mph 1022.6mb 22f
11:00 3 6 mph 1022.6mb 22f
10:54 6
mph
1022.5mb 22f
10:48 5 6 mph 1022.6mb 22f
10:42 5 6 mph 1022.5mb 22f
10:36 5 6 mph 1022.5mb 22f
10:30 5 6 mph 1022.4mb 22f
10:24 3 6 mph 1022.3mb 23f
10:18 5 6 mph 1022.2mb 23f
10:12 5 6 mph 1022.2mb 23f
10:06 6
mph
1022.1mb 23f
10:00 5 6 mph 1022mb 23f
9:54 6 8 mph 1021.8mb 23f
9:48 6 7 mph 1021.7mb 24f
9:42 6 8 mph 1021.7mb 24f
9:36 7 10 mph 1021.6mb 24f
9:30 6 8 mph 1021.5mb 24f
9:24 5 10 mph 1021.4mb 24f
9:18 9 11 mph 1021.1mb 25f
9:12 7 10 mph 1021.1mb 25f
9:06 6 9 mph 1021.1mb 25f
9:00 7 11 mph 1020.9mb 25f
8:54 7 14 mph 1020.8mb 25f
8:48 10 14 mph 1020.5mb 25f
8:42 13 16 mph 1020.3mb 26f
8:36 7 9 mph 1020.4mb 26f
8:30 6 16 mph 1020.3mb 26f
8:24 13 16 mph 1020mb 26f
8:18 11 18 mph 1019.9mb 26f
8:12 15 22 mph 1019.7mb 26f
8:06 16 24 mph 1019.5mb 26f
8:00 13 18 mph 1019.6mb 27f
7:54 11 24 mph 1019.7mb 27f
7:48 7 14 mph 1019.6mb 27f
7:42 10 14 mph 1019.4mb 27f
7:36 10 14 mph 1019.3mb 27f
7:30 7 13 mph 1019.3mb 27f
7:24 8 16 mph 1019.1mb 28f
7:18 13 17 mph 1018.9mb 28f
7:12 13 17 mph 1018.7mb 28f
7:06 11 16 mph 1018.8mb 28f
7:00 10 14 mph 1018.7mb 28f
6:54 10 16 mph 1018.6mb 28f
6:48 13 21 mph 1018.3mb 28f
6:42 13 22 mph 1018.3mb 28f
6:36 11 18 mph 1018.4mb 29f
6:30 14 24 mph 1018.2mb 29f
6:24 15 23 mph 1018mb 29f
6:18 9 17 mph 1018mb 29f
6:12 9 16 mph 1018mb 29f
6:06 10 20 mph 1017.8mb 29f
6:00 14 24 mph 1017.5mb 29f
5:54 11 18 mph 1017.5mb 29f
5:48 9 18 mph 1017.4mb 29f
5:42 11 22 mph 1017.3mb 29f
5:36 14 23 mph 1017.2mb 29f
5:30 11 21 mph 1017.1mb 29f
5:24 13 22 mph 1016.9mb 29f
5:18 14 23 mph 1016.8mb 29f
5:12 13 21 mph 1016.7mb 29f
5:06 10 21 mph 1016.7mb 29f
5:00 13 18 mph 1016.7mb 30f
4:54 8 20 mph 1016.7mb 30f
4:48 10 18 mph 1016.6mb 29f
4:42 11 21 mph 1016.5mb 30f
4:36 13 21 mph 1016.5mb 29f
4:30 9 15 mph 1016.5mb 30f
4:24 9 16 mph 1016.3mb 29f
4:18 8 21 mph 1016.3mb 30f
4:12 10 23 mph 1016.3mb 29f
4:06 14 22 mph 1016.2mb 29f
4:00 15 22 mph 1016.1mb 29f
3:54 10 22 mph 1016.2mb 29f
3:48 17 24 mph 1016.1mb 28f
3:42 11 21 mph 1016.2mb 28f
3:36 16 24 mph 1016.1mb 28f
3:30 14 21 mph 1016.2mb 28f
3:24 14 23 mph 1016.2mb 28f
3:18 18 24 mph 1016.1mb 27f
3:12 18 28 mph 1016.2mb 27f
3:06 9 23 mph 1016.2mb 27f
3:00 13 21 mph 1016.2mb 27f
2:54 15 23 mph 1016.2mb 27f
2:48 14 24 mph 1016.3mb 27f
2:42 15 23 mph 1016.3mb 27f
2:36 13 20 mph 1016.4mb 26f
2:30 15 25 mph 1016.5mb 26f
2:24 17 25 mph 1016.4mb 25f
2:18 17 25 mph 1016.3mb 26f
2:12 14 23 mph 1016.4mb 26f
2:06 17 24 mph 1016.4mb 25f
2:00 11 16 mph 1016.6mb 25f
1:54 9 24 mph 1016.6mb 26f
1:48 11 22 mph 1016.7mb 25f
1:42 14 20 mph 1016.7mb 25f
1:36 11 20 mph 1016.8mb 24f
1:30 15 21 mph 1016.7mb 24f
1:24 10 20 mph 1016.8mb 24f
1:18 14 20 mph 1016.7mb 23f
1:12 16 24 mph 1016.8mb 23f
1:06 13 25 mph 1016.7mb 22f
1:00 15 22 mph 1016.7mb 22f
12:54 10 21 mph 1016.8mb 22f
12:48 15 26 mph 1016.7mb 22f
12:42 14 22 mph 1016.7mb 21f
12:36 14 24 mph 1016.8mb 21f
12:30 14 23 mph 1016.8mb 21f
12:24 14 28 mph 1016.8mb 21f
12:18 10 22 mph 1016.7mb 21f
12:12 17 24 mph 1016.7mb 20f
12:06 16 24 mph 1016.6mb 20f
12:00 21 28 mph 1016.7mb 20f
11:54 18 25 mph 1016.7mb 19f
11:48 15 24 mph 1016.8mb 19f
11:42 14 25 mph 1016.9mb 19f
11:36 14 24 mph 1016.8mb 19f
11:30 14 23 mph 1016.9mb 18f
11:24 15 23 mph 1016.8mb 18f
11:18 20 29 mph 1016.9mb 17f
11:12 17 23 mph 1016.9mb 17f
11:06 15 25 mph 1017mb 17f
11:00 16 24 mph 1017mb 17f
10:54 15 24 mph 1017mb 17f
10:48 18 29 mph 1016.9mb 16f
10:42 16 24 mph 1017mb 16f
10:36 14 23 mph 1017mb 16f
10:30 15 28 mph 1017.1mb 15f
10:24 16 29 mph 1017.1mb 15f
10:18 17 24 mph 1017.1mb 15f
10:12 20 29 mph 1017.1mb 15f
10:06 20 28 mph 1017.1mb 15f
10:00 16 26 mph 1017.1mb 15f
9:54 16 24 mph 1017.2mb 15f
9:48 17 28 mph 1017.2mb 15f
9:42 14 23 mph 1017.1mb 15f
9:36 17 29 mph 1017.2mb 14f
9:30 13 21 mph 1017mb 14f
9:24 16 25 mph 1016.9mb 14f
9:18 13 29 mph 1017mb 14f
9:12 22 32 mph 1016.8mb 13f
9:06 18 25 mph 1016.9mb 13f
9:00 15 23 mph 1017.1mb 13f
8:54 14 29 mph 1017mb 13f
8:48 18 29 mph 1017mb 13f
8:42 17 28 mph 1016.9mb 13f
8:36 14 24 mph 1016.9mb 13f
8:30 16 22 mph 1017.2mb 13f
8:24 10 21 mph 1017.2mb 13f
8:18 15 23 mph 1017mb 13f
8:12 14 23 mph 1017mb 13f
8:06 13 21 mph 1017.3mb 13f
8:00 18 25 mph 1017.3mb 12f
7:54 11 23 mph 1017.3mb 13f
7:48 14 22 mph 1017.1mb 13f
7:42 15 21 mph 1017.2mb 13f
7:36 10 31 mph 1017.4mb 13f
7:30 14 22 mph 1017.1mb 12f
7:24 15 24 mph 1017.3mb 12f
7:18 8 22 mph 1017.1mb 13f
7:12 14 30 mph 1017.1mb 13f
7:06 15 23 mph 1017.1mb 13f
7:00 13 25 mph 1016.8mb 12f
6:54 10 24 mph 1017mb 12f
6:48 11 21 mph 1017mb 13f
6:42 11 17 mph 1017.1mb 13f
6:36 14 25 mph 1016.9mb 13f
6:30 15 28 mph 1016.8mb 13f
6:24 13 18 mph 1016.8mb 13f
6:18 18 28 mph 1016.7mb 13f
6:12 15 24 mph 1016.9mb 14f
6:06 14 24 mph 1016.6mb 14f
6:00 16 23 mph 1016.4mb 14f
5:54 13 22 mph 1016.5mb 14f
5:48 13 22 mph 1016.6mb 14f
5:42 15 22 mph 1016.6mb 14f
5:36 13 22 mph 1016.6mb 14f
5:30 10 16 mph 1016.7mb 14f
5:24 11 16 mph 1016.6mb 14f
5:18 10 16 mph 1016.4mb 14f
5:12 13 20 mph 1016.4mb 14f
5:06 10 22 mph 1016.3mb 14f
5:00 13 25 mph 1016.1mb 14f
4:54 10 20 mph 1016.1mb 14f
4:48 11 17 mph 1016.2mb 14f
4:42 8 13 mph 1016.3mb 14f
4:36 10 15 mph 1016.4mb 14f
4:30 10 17 mph 1016.3mb 14f
4:24 9 16 mph 1016.3mb 14f
4:18 9 21 mph 1016.3mb 14f
4:12 11 17 mph 1016.3mb 14f
4:06 10 18 mph 1016.3mb 14f
4:00 8 16 mph 1016.3mb 14f
3:54 10 22 mph 1016.3mb 14f
3:48 11 16 mph 1016.3mb 14f
3:42 9 15 mph 1016.4mb 14f
3:36 11 20 mph 1016.4mb 14f
3:30 13 18 mph 1016.5mb 14f
3:24 10 17 mph 1016.5mb 14f
3:18 9 15 mph 1016.5mb 14f
3:12 11 16 mph 1016.5mb 14f
3:06 11 17 mph 1016.5mb 14f
3:00 9 15 mph 1016.5mb 14f
2:54 10 16 mph 1016.6mb 14f
2:48 9 14 mph 1016.7mb 14f
2:42 9 16 mph 1016.7mb 14f
2:36 9 15 mph 1016.8mb 14f
2:30 8 15 mph 1016.8mb 14f
2:24 8 13 mph 1016.8mb 14f
2:18 8 14 mph 1016.8mb 14f